Location: Bonny Doon Airfield
(37.0704°N, 122.1252°W)
Time: 07:42:08
(UTC-08:00)

Vanguard 1 - Visible Passes

Search period start: 25 February 2018 00:00
Search period end: 07 March 2018 00:00
Orbit: 650 x 3833 km, 34.2° (Epoch: 24 February)

Date Brightness Start Highest point End Pass type
(mag) Time Alt. Az. Time Alt. Az. Time Alt. Az.
25 Feb 11.8 19:44:35 10° WSW 19:48:13 16° SW 19:51:14 10° S visible
28 Feb 11.9 18:24:07 10° W 18:31:08 28° SW 18:35:49 10° SSE visible
01 Mar 12.1 18:46:09 10° W 18:51:34 20° SW 18:55:33 10° S visible
02 Mar 12.5 19:09:08 10° WSW 19:11:53 12° SW 19:14:14 10° SSW visible
06 Mar 14.7 06:12:57 10° SE 06:18:26 11° SE 06:23:58 10° ESE visible
